Weather History for Springfield, MO

Change the Weather History Date:

Monday, November 25, 2013

  Actual Average Record
Temperature  
Mean Temperature 33 °F 42 °F  
Max Temperature 36 °F 52 °F 74 °F (1990)
Min Temperature 29 °F 31 °F 9 °F (1950)
Degree Days  
Heating Degree Days 32 23  
Month to date heating degree days 487 448  
Since 1 July heating degree days 791 756  
Cooling Degree Days 0 0  
Month to date cooling degree days 0 0  
Year to date cooling degree days 1417 1387  
Moisture  
Dew Point 21 °F    
Average Humidity 60    
Maximum Humidity 78    
Minimum Humidity 42    
Precipitation  
Precipitation T in 0.14 in 1.69 in (1952)
Month to date precipitation 2.02 3.53  
Year to date precipitation 49.28 41.84  
Snow  
Snow T in - - ()
Month to date snowfall T  
Since 1 July snowfall T  
Since 1 September snowfall T  
Snow Depth 0.00 in    
Sea Level Pressure  
Sea Level Pressure 30.25 in    
Wind  
Wind Speed 7 mph (SSW)    
Max Wind Speed 15 mph    
Max Gust Speed 19 mph    
Visibility 10 miles    
Events      
T = Trace of Precipitation, MM = Missing Value Source: NWS Daily Summary

Daily Weather History Graph

Daily Weather History Graph

Search for Another Location

Airport:

Trip Planner

Search our weather history database for the weather conditions in past years. The results will help you decide how hot, cold, wet, or windy it might be!

Date:

Astronomy

Nov. 25, 2013 Rise Set
Actual Time 7:03 AM CST 4:57 PM CST
Civil Twilight 6:34 AM CST 5:26 PM CST
Nautical Twilight 6:02 AM CST 5:58 PM CST
Astronomical Twilight 5:31 AM CST 6:29 PM CST
Moon No Moon Rise 12:25 PM CST (11/25)
Length of Visible Light 10h 51m
Length of Day
9h 54m
Waning Gibbous, 51% of the Moon is Illuminated
Nov 25
Waning Gibbous
Nov 25
Last Quarter
Dec 2
New
Dec 9
First Quarter
Dec 17
Full

Hourly Weather History & Observations

Time (CST) Temp. Windchill Dew Point Humidity Pressure Visibility Wind Dir Wind Speed Gust Speed Precip Events Conditions
12:52 AM 28.9 °F 19.2 °F 10.0 °F 45% 30.37 in 10.0 mi SSE 11.5 mph - N/A   Overcast
1:52 AM 28.9 °F 21.1 °F 10.9 °F 47% 30.35 in 10.0 mi SSE 8.1 mph - N/A   Overcast
2:52 AM 28.9 °F 19.2 °F 10.9 °F 47% 30.33 in 10.0 mi SSE 11.5 mph - N/A   Overcast
3:52 AM 28.9 °F 19.8 °F 12.0 °F 49% 30.32 in 10.0 mi SSE 10.4 mph - N/A   Overcast
4:52 AM 28.9 °F 19.2 °F 12.0 °F 49% 30.30 in 10.0 mi SSE 11.5 mph - N/A   Overcast
5:52 AM 28.9 °F 19.2 °F 12.9 °F 51% 30.29 in 10.0 mi SSE 11.5 mph - N/A   Overcast
6:52 AM 28.9 °F 18.2 °F 12.9 °F 51% 30.30 in 10.0 mi South 13.8 mph - N/A   Overcast
7:52 AM 28.9 °F 19.2 °F 14.0 °F 54% 30.30 in 10.0 mi South 11.5 mph - N/A   Overcast
8:52 AM 30.0 °F 20.5 °F 15.1 °F 54% 30.30 in 10.0 mi South 11.5 mph - 0.00 in   Overcast
9:52 AM 28.9 °F 19.8 °F 21.0 °F 72% 30.32 in 10.0 mi South 10.4 mph - 0.00 in   Overcast
10:52 AM 28.9 °F 21.1 °F 23.0 °F 78% 30.30 in 10.0 mi South 8.1 mph - 0.00 in   Overcast
11:52 AM 32.0 °F 24.2 °F 23.0 °F 69% 30.25 in 10.0 mi South 9.2 mph - N/A   Overcast
12:52 PM 33.1 °F 26.1 °F 24.1 °F 70% 30.24 in 10.0 mi SW 8.1 mph - N/A   Overcast
1:52 PM 34.0 °F 29.8 °F 26.1 °F 73% 30.21 in 10.0 mi SSW 4.6 mph - N/A   Overcast
2:32 PM 35.1 °F 32.2 °F 27.0 °F 72% 30.17 in 10.0 mi West 3.5 mph - N/A   Overcast
2:52 PM 35.1 °F 32.2 °F 27.0 °F 72% 30.20 in 10.0 mi South 3.5 mph - N/A   Overcast
3:52 PM 36.0 °F 33.3 °F 27.0 °F 70% 30.21 in 10.0 mi West 3.5 mph - N/A   Overcast
4:52 PM 35.1 °F 31.0 °F 27.0 °F 72% 30.21 in 10.0 mi NW 4.6 mph - N/A   Overcast
5:52 PM 35.1 °F - 28.0 °F 76% 30.23 in 10.0 mi Calm Calm - N/A   Overcast
6:40 PM 35.1 °F 31.0 °F 27.0 °F 72% 30.17 in 10.0 mi NW 4.6 mph - N/A   Overcast
6:52 PM 34.0 °F 29.8 °F 27.0 °F 75% 30.20 in 10.0 mi NNW 4.6 mph - N/A   Overcast
7:52 PM 34.0 °F - 27.0 °F 75% 30.20 in 10.0 mi Calm Calm - N/A   Mostly Cloudy
8:52 PM 34.0 °F - 27.0 °F 75% 30.20 in 10.0 mi Calm Calm - N/A   Overcast
9:52 PM 34.0 °F - 27.0 °F 75% 30.21 in 10.0 mi Calm Calm - N/A   Overcast
10:52 PM 34.0 °F 31.0 °F 27.0 °F 75% 30.19 in 10.0 mi NNW 3.5 mph - N/A   Overcast
11:52 PM 34.0 °F 31.0 °F 27.0 °F 75% 30.19 in 10.0 mi NNW 3.5 mph - N/A   Overcast